| time (UTC) | temp F | wind direction | speed knots | gust knots | rain 1hr in | rain 24hr in | rain mn in | humidity % | barometer mb |
| 20260506044553 | 50 | 21 | 1.7 | 7.8 | 0.00 | 0.00 | 0.00 | 84 | 1008.7 |
| 20260506043049 | 50 | 28 | 2.6 | 8.7 | 0.00 | 0.00 | 0.00 | 83 | 1008.7 |
| 20260506041548 | 50 | 347 | 1.7 | 5.2 | 0.00 | 0.00 | 0.00 | 83 | 1008.6 |
| 20260506040050 | 50 | 5 | 1.7 | 7.8 | 0.00 | 0.00 | 0.00 | 83 | 1008.7 |
| 20260506034607 | 50 | 38 | 0.9 | 4.3 | 0.00 | 0.00 | 0.00 | 83 | 1008.7 |
| 20260506033045 | 50 | 9 | 0.9 | 4.3 | 0.00 | 0.00 | 0.00 | 82 | 1008.8 |
| 20260506031551 | 50 | 345 | 0.9 | 6.1 | 0.00 | 0.00 | 0.00 | 81 | 1008.8 |
| 20260506030043 | 50 | 18 | 0.9 | 3.5 | 0.00 | 0.00 | 0.00 | 82 | 1009.0 |
| 20260506024548 | 50 | 355 | 2.6 | 5.2 | 0.00 | 0.00 | 0.00 | 82 | 1009.1 |
| 20260506023040 | 49 | 5 | 0.9 | 6.1 | 0.00 | 0.00 | 0.00 | 83 | 1009.1 |
| 20260506021538 | 49 | 19 | 0.9 | 3.5 | 0.00 | 0.00 | 0.00 | 83 | 1009.1 |
| 20260506020038 | 49 | 335 | 0.9 | 2.6 | 0.00 | 0.00 | 0.00 | 84 | 1009.2 |
| 20260506014537 | 49 | 360 | 0.9 | 4.3 | 0.00 | 0.00 | 0.00 | 84 | 1009.3 |
| 20260506013041 | 49 | 23 | 1.7 | 6.1 | 0.00 | 0.00 | 0.00 | 84 | 1009.3 |
| 20260506011541 | 49 | 18 | 1.7 | 6.1 | 0.00 | 0.00 | 0.00 | 83 | 1009.3 |
| 20260506010050 | 49 | 14 | 1.7 | 5.2 | 0.00 | 0.00 | 0.00 | 83 | 1009.3 |
| 20260506004532 | 49 | 355 | 1.7 | 7.8 | 0.00 | 0.00 | 0.00 | 83 | 1009.5 |
| 20260506003028 | 49 | 17 | 1.7 | 5.2 | 0.00 | 0.00 | 0.00 | 82 | 1009.7 |
| 20260506001529 | 49 | 15 | 1.7 | 7.0 | 0.00 | 0.00 | 0.00 | 82 | 1009.8 |
| 20260506000024 | 48 | 355 | 1.7 | 4.3 | 0.00 | 0.00 | 0.00 | 82 | 1009.9 |
| 20260505234523 | 48 | 9 | 0.9 | 4.3 | 0.00 | 0.00 | 0.00 | 82 | 1010.0 |
| 20260505233021 | 48 | 360 | 0.9 | 4.3 | 0.00 | 0.00 | 0.00 | 81 | 1010.1 |
| 20260505231520 | 48 | 17 | 0.0 | 3.5 | 0.00 | 0.00 | 0.00 | 81 | 1010.1 |
| 20260505230025 | 48 | 15 | 0.9 | 2.6 | 0.00 | 0.00 | 0.00 | 81 | 1010.2 |
| 20260505224517 | 49 | 15 | 0.9 | 2.6 | 0.00 | 0.00 | 0.00 | 80 | 1010.2 |
| 20260505223017 | 49 | 46 | 0.9 | 7.0 | 0.00 | 0.00 | 0.00 | 79 | 1010.2 |
| 20260505221513 | 49 | 360 | 0.9 | 3.5 | 0.00 | 0.00 | 0.00 | 79 | 1010.4 |
| 20260505220010 | 49 | 21 | 0.9 | 4.3 | 0.00 | 0.00 | 0.00 | 79 | 1010.6 |
| 20260505214510 | 50 | 360 | 0.9 | 6.1 | 0.00 | 0.00 | 0.00 | 78 | 1010.6 |
| 20260505213019 | 50 | 25 | 0.9 | 5.2 | 0.00 | 0.00 | 0.00 | 78 | 1010.6 |
| 20260505211507 | 50 | 51 | 0.9 | 5.2 | 0.00 | 0.00 | 0.00 | 78 | 1010.7 |
| 20260505210007 | 50 | 360 | 0.9 | 6.1 | 0.00 | 0.00 | 0.00 | 78 | 1010.7 |
| 20260505204506 | 51 | 44 | 1.7 | 5.2 | 0.00 | 0.00 | 0.00 | 78 | 1010.7 |
| 20260505203006 | 51 | 40 | 1.7 | 4.3 | 0.00 | 0.00 | 0.00 | 78 | 1010.8 |
| 20260505201506 | 51 | 78 | 1.7 | 7.0 | 0.00 | 0.00 | 0.00 | 77 | 1010.7 |
| 20260505200006 | 51 | 350 | 1.7 | 10.4 | 0.00 | 0.00 | 0.00 | 77 | 1010.7 |
| 20260505194504 | 52 | 61 | 4.3 | 9.6 | 0.00 | 0.00 | 0.00 | 77 | 1010.6 |
| 20260505193004 | 52 | 25 | 3.5 | 12.2 | 0.00 | 0.00 | 0.00 | 76 | 1010.3 |
| 20260505191503 | 53 | 31 | 2.6 | 12.2 | 0.00 | 0.00 | 0.00 | 75 | 1010.1 |
| 20260505190003 | 53 | 18 | 4.3 | 10.4 | 0.00 | 0.00 | 0.00 | 75 | 1010.0 |
| 20260505184502 | 54 | 74 | 4.3 | 11.3 | 0.00 | 0.00 | 0.00 | 74 | 1009.9 |
| 20260505183001 | 54 | 19 | 3.5 | 10.4 | 0.00 | 0.00 | 0.00 | 73 | 1009.8 |
| 20260505181502 | 55 | 336 | 2.6 | 9.6 | 0.00 | 0.00 | 0.00 | 73 | 1009.7 |
| 20260505180100 | 55 | 38 | 5.2 | 11.3 | 0.00 | 0.00 | 0.00 | 72 | 1009.8 |
| 20260505174600 | 56 | 45 | 4.3 | 10.4 | 0.00 | 0.00 | 0.00 | 71 | 1009.8 |
| 20260505173107 | 57 | 349 | 2.6 | 7.0 | 0.00 | 0.00 | 0.00 | 72 | 1009.8 |
| 20260505171602 | 57 | 11 | 4.3 | 9.6 | 0.00 | 0.00 | 0.00 | 69 | 1009.8 |
| 20260505170058 | 57 | 19 | 2.6 | 5.2 | 0.00 | 0.00 | 0.00 | 74 | 1009.8 |
| 20260505164558 | 56 | 347 | 4.3 | 7.8 | 0.00 | 0.00 | 0.00 | 73 | 1009.9 |
| 20260505163057 | 56 | 342 | 3.5 | 8.7 | 0.00 | 0.00 | 0.00 | 73 | 1009.9 |
| 20260505161619 | 56 | 346 | 3.5 | 9.6 | 0.00 | 0.00 | 0.00 | 73 | 1009.9 |
| 20260505153055 | 57 | 19 | 3.5 | 6.1 | 0.00 | 0.00 | 0.00 | 71 | 1009.9 |
| 20260505151611 | 58 | 340 | 3.5 | 8.7 | 0.00 | 0.00 | 0.00 | 70 | 1010.0 |
| 20260505124549 | 62 | 28 | 4.3 | 12.2 | 0.00 | 0.00 | 0.00 | 62 | 1010.4 |
| 20260505123046 | 63 | 86 | 4.3 | 12.2 | 0.00 | 0.00 | 0.00 | 59 | 1010.5 |
| 20260505121544 | 61 | 26 | 4.3 | 8.7 | 0.00 | 0.00 | 0.00 | 63 | 1010.4 |
| 20260505120104 | 61 | 12 | 4.3 | 10.4 | 0.00 | 0.00 | 0.00 | 61 | 1010.5 |
| 20260505114543 | 62 | 70 | 7.0 | 12.2 | 0.00 | 0.00 | 0.00 | 63 | 1010.5 |
| 20260505113045 | 61 | 61 | 5.2 | 13.9 | 0.00 | 0.00 | 0.00 | 63 | 1010.7 |
| 20260505111538 | 59 | 44 | 4.3 | 10.4 | 0.00 | 0.00 | 0.00 | 64 | 1010.8 |
| 20260505101530 | 58 | 101 | 5.2 | 11.3 | 0.00 | 0.00 | 0.00 | 67 | 1011.3 |
| 20260505100029 | 58 | 11 | 2.6 | 13.0 | 0.00 | 0.00 | 0.00 | 69 | 1011.4 |
| 20260505094527 | 57 | 32 | 4.3 | 10.4 | 0.00 | 0.00 | 0.00 | 69 | 1011.5 |
| 20260505093026 | 58 | 79 | 7.0 | 12.2 | 0.00 | 0.00 | 0.00 | 69 | 1011.4 |
| 20260505091528 | 56 | 57 | 3.5 | 9.6 | 0.00 | 0.00 | 0.00 | 71 | 1011.5 |
| 20260505090036 | 55 | 36 | 4.3 | 12.2 | 0.00 | 0.00 | 0.00 | 72 | 1011.5 |
| 20260505084517 | 54 | 34 | 4.3 | 10.4 | 0.00 | 0.00 | 0.00 | 75 | 1011.5 |
| 20260505083016 | 54 | 23 | 3.5 | 9.6 | 0.00 | 0.00 | 0.00 | 76 | 1011.5 |
| 20260505081515 | 54 | 90 | 6.1 | 12.2 | 0.00 | 0.00 | 0.00 | 77 | 1011.5 |
| 20260505080012 | 53 | 34 | 3.5 | 14.8 | 0.00 | 0.00 | 0.00 | 79 | 1011.4 |
| 20260505074511 | 52 | 69 | 5.2 | 10.4 | 0.00 | 0.00 | 0.00 | 82 | 1011.5 |
| 20260505073014 | 52 | 74 | 3.5 | 7.8 | 0.00 | 0.00 | 0.00 | 81 | 1011.7 |
| 20260505071515 | 52 | 17 | 2.6 | 5.2 | 0.00 | 0.00 | 0.00 | 83 | 1011.7 |
| 20260505070007 | 51 | 13 | 2.6 | 7.8 | 0.00 | 0.00 | 0.00 | 83 | 1011.8 |
| 20260505064518 | 51 | 24 | 2.6 | 6.1 | 0.00 | 0.00 | 0.00 | 85 | 1011.8 |
| 20260505063006 | 51 | 41 | 2.6 | 6.1 | 0.00 | 0.00 | 0.00 | 86 | 1012.0 |
| 20260505061512 | 51 | 29 | 3.5 | 9.6 | 0.00 | 0.00 | 0.00 | 87 | 1012.0 |
| 20260505060006 | 51 | 46 | 1.7 | 6.1 | 0.00 | 0.00 | 0.00 | 88 | 1012.1 |
| 20260505054505 | 50 | 28 | 1.7 | 5.2 | 0.00 | 0.00 | 0.00 | 88 | 1012.1 |
| 20260505053005 | 50 | 40 | 2.6 | 4.3 | 0.00 | 0.00 | 0.00 | 88 | 1012.1 |
| 20260505051505 | 50 | 33 | 1.7 | 4.3 | 0.00 | 0.00 | 0.00 | 88 | 1011.9 |